TimeCET,TemperatureF,Dew PointF,Humidity,Sea Level PressureIn,VisibilityMPH,Wind Direction,Wind SpeedMPH,Gust SpeedMPH,PrecipitationIn,Events,Conditions,WindDirDegrees,DateUTC
1:00 AM,47,40,69,29.75,19,West,16.1,,,,Clear,280,2013-02-23 00:00:00
6:00 AM,46.4,41.0,81,29.65,6.2,Variable,1.2,-,N/A,Rain,Light Rain,0,2013-02-23 05:00:00
6:30 AM,44.6,41.0,87,29.65,6.2,WSW,5.8,-,N/A,Rain,Rain,250,2013-02-23 05:30:00
7:00 AM,44,40,81,29.67,9,SSW,2.3,,,Rain,Rain,200,2013-02-23 06:00:00
7:00 AM,44.6,42.8,93,29.62,6.2,Variable,2.3,-,N/A,Rain,Rain,0,2013-02-23 06:00:00
7:30 AM,44.6,41.0,87,29.62,6.2,WSW,5.8,-,N/A,Rain,Rain,240,2013-02-23 06:30:00
8:00 AM,42.8,41.0,93,29.65,3.7,Variable,1.2,-,N/A,Rain,Rain,0,2013-02-23 07:00:00
8:30 AM,42.8,41.0,93,29.65,5.0,SW,4.6,-,N/A,,Mostly Cloudy,230,2013-02-23 07:30:00
9:00 AM,44.6,42.8,93,29.65,3.7,West,6.9,-,N/A,Rain,Rain,260,2013-02-23 08:00:00
9:30 AM,44.6,44.6,100,29.68,6.2,West,5.8,-,N/A,Rain,Light Rain,270,2013-02-23 08:30:00
9:42 AM,44.6,44.6,100,29.68,3.7,West,8.1,-,N/A,Rain,Rain,280,2013-02-23 08:42:00
10:00 AM,44.6,44.6,100,29.68,4.3,Calm,Calm,-,N/A,Rain,Rain,0,2013-02-23 09:00:00
10:16 AM,46.4,44.6,93,29.71,5.6,WNW,8.1,-,N/A,,Mostly Cloudy,300,2013-02-23 09:16:00
10:30 AM,46.4,42.8,87,29.71,6.2,WNW,8.1,-,N/A,,Mostly Cloudy,300,2013-02-23 09:30:00
11:00 AM,46.4,42.8,87,29.71,6.2,WNW,12.7,-,N/A,,Mostly Cloudy,290,2013-02-23 10:00:00
11:30 AM,46.4,44.6,93,29.74,6.2,West,12.7,-,N/A,,Mostly Cloudy,280,2013-02-23 10:30:00
12:00 PM,46.4,41.0,81,29.74,6.2,NW,11.5,23.0,N/A,Rain,Light Rain,320,2013-02-23 11:00:00
12:30 PM,48.2,41.0,76,29.77,6.2,NNW,6.9,-,N/A,,Mostly Cloudy,330,2013-02-23 11:30:00
1:00 PM,48,39,63,29.80,19,NW,8.1,,,,Mostly Cloudy,310,2013-02-23 12:00:00
1:00 PM,48.2,41.0,76,29.77,6.2,NW,8.1,-,N/A,,Mostly Cloudy,310,2013-02-23 12:00:00
1:30 PM,48.2,41.0,76,29.77,6.2,WNW,11.5,-,N/A,,Mostly Cloudy,300,2013-02-23 12:30:00
2:00 PM,50.0,42.8,76,29.77,6.2,NW,12.7,-,N/A,,Mostly Cloudy,320,2013-02-23 13:00:00
2:30 PM,50.0,41.0,71,29.80,6.2,WNW,16.1,-,N/A,,Mostly Cloudy,300,2013-02-23 13:30:00
3:00 PM,50.0,41.0,71,29.80,6.2,WNW,17.3,-,N/A,,Mostly Cloudy,300,2013-02-23 14:00:00
3:30 PM,50.0,42.8,76,29.80,6.2,NW,16.1,-,N/A,Rain,Light Rain,320,2013-02-23 14:30:00
4:00 PM,51.8,41.0,67,29.83,6.2,WNW,13.8,-,N/A,,Scattered Clouds,300,2013-02-23 15:00:00
4:30 PM,50.0,41.0,71,29.83,6.2,NW,9.2,-,N/A,,Mostly Cloudy,310,2013-02-23 15:30:00
5:00 PM,48.2,41.0,76,29.86,6.2,NNE,13.8,-,N/A,,Mostly Cloudy,20,2013-02-23 16:00:00
5:30 PM,48.2,39.2,71,29.86,6.2,NNE,10.4,-,N/A,,Scattered Clouds,20,2013-02-23 16:30:00
6:00 PM,48.2,39.2,71,29.89,6.2,NNE,5.8,-,N/A,,Scattered Clouds,30,2013-02-23 17:00:00
6:30 PM,48.2,39.2,71,29.89,6.2,NNE,6.9,-,N/A,,Scattered Clouds,30,2013-02-23 17:30:00
7:00 PM,47,38,62,29.93,19,NNE,3.5,,,,Mostly Cloudy,30,2013-02-23 18:00:00
7:00 PM,48.2,39.2,71,29.89,6.2,NNE,4.6,-,N/A,,Scattered Clouds,30,2013-02-23 18:00:00
7:30 PM,46.4,39.2,76,29.92,6.2,NNE,3.5,-,N/A,,Scattered Clouds,20,2013-02-23 18:30:00
8:00 PM,44.6,39.2,81,29.95,6.2,NNE,4.6,-,N/A,,Scattered Clouds,30,2013-02-23 19:00:00
8:30 PM,44.6,39.2,81,29.95,6.2,NNE,3.5,-,N/A,,Scattered Clouds,20,2013-02-23 19:30:00
9:00 PM,44.6,37.4,76,29.98,6.2,Variable,2.3,-,N/A,,Partly Cloudy,0,2013-02-23 20:00:00
9:30 PM,42.8,37.4,81,29.98,6.2,Calm,Calm,-,N/A,,Partly Cloudy,0,2013-02-23 20:30:00
10:00 PM,41.0,37.4,87,29.98,6.2,Calm,Calm,-,N/A,,Partly Cloudy,0,2013-02-23 21:00:00
10:30 PM,42.8,35.6,76,30.01,6.2,Variable,1.2,-,N/A,,Partly Cloudy,0,2013-02-23 21:30:00
11:00 PM,42.8,35.6,76,30.01,6.2,Variable,1.2,-,N/A,,Partly Cloudy,0,2013-02-23 22:00:00